This is the latest recevied weather packets stored in our database for station/object K1BWE-1. If no packets are shown the sender has not sent any weather packets the latest 10 day(s).
| Time | Temp. | Humidity | Pressure | Rain* | Wind** | Luminosity | Snow |
|---|---|---|---|---|---|---|---|
| 1777715628 | 17.78° C | 31% | 1015 hPa | 0 mm | - | 0 W/m² | - |
| 1777715326 | 17.22° C | 31% | 1015.1 hPa | 0 mm | - | 0 W/m² | - |
| 1777715023 | 16.67° C | 32% | 1015.3 hPa | 0 mm | - | 0 W/m² | - |
| 1777714721 | 15.56° C | 34% | 1014.9 hPa | 0 mm | - | 0 W/m² | - |
| 1777714419 | 15° C | 35% | 1015 hPa | 0 mm | - | 0 W/m² | - |
| 1777714117 | 14.44° C | 36% | 1014.8 hPa | 0 mm | - | 0 W/m² | - |
| 1777713814 | 14.44° C | 36% | 1014.9 hPa | 0 mm | - | 0 W/m² | - |
| 1777713512 | 14.44° C | 36% | 1015.1 hPa | 0 mm | - | 0 W/m² | - |
| 1777713207 | 14.44° C | 36% | 1014.9 hPa | 0 mm | - | 0 W/m² | - |
| 1777712905 | 14.44° C | 37% | 1015.1 hPa | 0 mm | - | 0 W/m² | - |
| 1777712601 | 14.44° C | 36% | 1015.1 hPa | 0 mm | - | 0 W/m² | - |
| 1777712298 | 14.44° C | 35% | 1015.2 hPa | 0 mm | - | 0 W/m² | - |
| 1777711994 | 14.44° C | 35% | 1015 hPa | 0 mm | - | 0 W/m² | - |
| 1777711692 | 14.44° C | 35% | 1015.2 hPa | 0 mm | - | 0 W/m² | - |
| 1777711388 | 14.44° C | 35% | 1014.9 hPa | 0 mm | - | 0 W/m² | - |
| 1777711084 | 15° C | 35% | 1015.1 hPa | 0 mm | - | 0 W/m² | - |
| 1777710780 | 15° C | 35% | 1015.1 hPa | 0 mm | - | 0 W/m² | - |
| 1777710478 | 15° C | 35% | 1014.9 hPa | 0 mm | - | 0 W/m² | - |
| 1777710175 | 15° C | 35% | 1015 hPa | 0 mm | - | 0 W/m² | - |
| 1777709872 | 15.56° C | 35% | 1015 hPa | 0 mm | - | 0 W/m² | - |
| 1777709570 | 15.56° C | 36% | 1015.3 hPa | 0 mm | - | 0 W/m² | - |
| 1777709267 | 15° C | 37% | 1015.5 hPa | 0 mm | - | 0 W/m² | - |
| 1777708964 | 15° C | 37% | 1015.3 hPa | 0 mm | - | 0 W/m² | - |
| 1777708662 | 15.56° C | 37% | 1015.4 hPa | 0 mm | - | 0 W/m² | - |
| 1777708359 | 15.56° C | 35% | 1015.4 hPa | 0 mm | - | 0 W/m² | - |
* Rain latest hour (hover to see other rain measurements)
** Current wind speed in m/s (hover to see current wind gust speed)